GFSWCAN_850_dewp_048.txt.gz
Dewpoint
-2 -4 -5 -4 -4 -4 -4 -4 -4 -5 -5 -4 -4 -4 -4 -2 1 1 1 1 1 2 3 5 4 1 0 1 5 6 6 6 6 5 6 5 3 4 4 4 3 3 4 3 4 3 2 0 -2 -1 -1 0 -0 -0
-3 -4 -4 -4 -4 -4 -4 -4 -4 -4 -3 -3 -1 -0 -0 1 1 1 1 0 1 2 4 4 5 4 5 0 4 6 4 6 7 7 6 5 6 3 4 6 4 4 2 3 3 3 2 0 0 0 0 1 2 1
-3 -4 -5 -4 -4 -4 -4 -3 -3 -2 -1 -1 -1 0 0 0 1 0 -1 -2 0 1 2 3 4 7 5 3 2 5 6 5 6 5 7 6 5 3 4 3 3 2 4 4 2 4 4 3 3 2 1 2 2 2
-3 -4 -4 -4 -4 -4 -5 -2 -1 -1 -1 -1 -2 -0 -2 -1 -0 -2 -2 1 -0 3 3 3 5 8 5 5 4 3 2 4 4 3 5 4 5 4 3 4 3 3 1 2 5 4 3 3 2 2 2 2 2 2
-2 -2 -2 -3 -4 -5 -6 -4 -2 -3 -4 -5 -7 -5 -5 -5 -3 -2 -2 0 1 3 4 4 6 7 6 5 4 3 2 2 7 3 3 5 5 4 3 2 2 1 1 2 4 3 2 2 1 1 1 1 1 1
-2 -2 -3 -4 -6 -6 -5 -3 -2 -3 -5 -7 -7 -8 -7 -2 -2 -0 1 0 1 3 4 4 3 8 7 7 4 6 4 6 6 5 5 5 6 2 2 2 3 3 3 1 3 3 1 1 1 0 0 0 -0 -0
-2 -3 -3 -4 -5 -6 -7 -6 -5 -5 -6 -7 -7 -5 -3 -2 -2 0 0 -0 -1 2 3 4 5 7 7 7 7 8 8 7 6 7 6 4 6 3 2 3 3 3 3 3 3 1 1 0 0 0 0 0 -0 -1
-2 -2 -3 -3 -4 -4 -4 -4 -5 -5 -5 -5 -3 -3 -3 -2 -1 1 3 5 4 3 2 4 5 6 7 7 7 7 7 6 5 5 5 2 5 2 3 3 2 3 2 2 2 2 1 1 0 -0 -1 -2 -3 -4
-1 -1 -2 -2 -3 -3 -3 -4 -5 -5 -5 -4 -0 1 2 1 3 2 2 5 4 4 4 3 5 6 6 5 6 6 5 4 4 3 3 3 2 3 3 2 1 2 2 1 1 1 0 -0 -1 -2 -2 -3 -3 -4
3 1 -0 -1 -1 -0 -0 0 1 0 1 1 1 3 3 2 1 2 3 4 5 4 4 3 5 5 5 4 3 4 4 3 4 4 4 2 2 1 2 2 1 1 1 1 0 -0 -1 -1 -2 -2 -3 -3 -3 -4
5 4 4 3 3 3 3 2 2 1 1 3 3 4 3 4 4 3 4 2 3 1 3 4 4 4 4 3 3 3 3 0 4 4 3 3 3 1 2 1 1 1 0 0 0 -0 -1 -2 -2 -2 -2 -3 -5 -9
6 6 5 4 4 4 4 4 3 3 4 4 4 5 5 4 2 1 2 1 2 2 2 3 4 4 4 3 2 2 2 -0 3 2 4 3 1 1 1 1 1 0 0 -0 -0 -1 -1 -2 -2 -3 -4 -8 -11 -13
5 5 6 5 5 5 5 4 5 5 4 4 3 2 2 1 2 -1 1 2 2 1 3 3 2 3 2 2 2 2 1 1 0 2 1 2 1 0 0 1 0 0 -0 -1 -1 -1 -2 -2 -3 -4 -10 -11 -12 -12
4 4 5 6 6 5 5 4 4 4 2 1 0 1 1 1 0 0 1 1 0 2 3 3 2 2 2 2 1 3 2 2 1 2 1 1 0 -0 -0 -1 -0 -1 -1 -1 -1 -1 -2 -3 -7 -9 -9 -10 -12 -16
4 3 3 3 3 3 4 4 3 1 0 -0 -0 1 -0 -1 -1 -1 -0 0 1 2 2 2 2 2 1 2 1 1 2 2 -0 0 1 1 -1 -1 -1 -2 -1 -2 -2 -2 -2 -2 -6 -9 -8 -7 -9 -12 -16 -16
2 3 3 3 2 2 1 1 1 0 -2 -1 -2 -0 -0 0 -1 -1 -0 0 1 2 2 2 1 1 2 1 1 2 0 2 1 -0 -0 0 -1 -1 -2 -2 -2 -2 -3 -6 -9 -10 -8 -10 -10 -11 -13 -15 -15 -16
2 2 2 2 2 2 1 1 0 -2 -2 -2 -2 -2 -1 -2 -2 -2 -1 -0 1 1 1 -0 2 2 0 2 1 0 0 -0 -1 -0 -0 -0 -2 -2 -2 -2 -3 -4 -7 -5 -5 -6 -8 -9 -11 -12 -14 -14 -14 -15
-11 -6 2 1 0 2 -0 -2 -1 -2 -2 -2 -2 -2 -2 -2 -2 -2 -1 -0 1 0 0 1 1 -1 -1 0 0 -1 -2 -1 -1 -1 -1 -2 -2 -2 -3 -3 -3 -4 -5 -5 -4 -5 -7 -10 -11 -12 -13 -14 -14 -15
-14 -17 -13 1 1 -3 -3 -3 -3 -2 -2 -2 -2 -2 -2 -3 -3 -3 -1 -1 -1 -1 -2 -3 -4 -3 -3 -3 -2 -2 -2 -3 -3 -3 -3 -2 -2 -3 -3 -3 -3 -5 -5 -5 -6 -8 -10 -11 -11 -12 -14 -17 -20 -21
-19 -13 -14 -11 -5 -5 -3 -3 -3 -3 -2 -2 -2 -3 -3 -3 -4 -4 -4 -4 -4 -5 -4 -4 -5 -6 -5 -4 -3 -2 -3 -3 -3 -3 -3 -3 -3 -3 -3 -4 -4 -5 -6 -7 -8 -9 -10 -11 -13 -14 -19 -22 -23 -24
-23 -17 -15 -11 -6 -4 -2 -2 -2 -3 -2 -2 -2 -2 -3 -5 -7 -7 -7 -8 -7 -5 -5 -6 -7 -7 -6 -3 -3 -3 -3 -2 -3 -3 -4 -4 -4 -4 -5 -5 -6 -7 -7 -8 -9 -10 -10 -10 -13 -19 -23 -24 -24 -23
-21 -22 -17 -9 -6 -5 -4 -3 -3 -3 -3 -2 -2 -3 -3 -3 -4 -8 -9 -7 -6 -7 -7 -7 -7 -7 -6 -6 -5 -4 -4 -3 -4 -4 -5 -5 -6 -6 -7 -7 -7 -8 -9 -9 -10 -10 -11 -12 -16 -21 -22 -23 -24 -26
-26 -20 -12 -8 -8 -7 -6 -6 -5 -4 -5 -4 -4 -4 -4 -4 -3 -9 -7 -8 -9 -9 -8 -8 -8 -8 -7 -7 -6 -6 -6 -5 -6 -6 -6 -7 -7 -8 -8 -9 -9 -9 -10 -11 -12 -12 -12 -16 -21 -23 -26 -27 -27 -27
-15 -8 -6 -5 -5 -6 -7 -6 -6 -5 -5 -7 -6 -6 -6 -4 -9 -8 -8 -10 -11 -10 -9 -9 -9 -9 -9 -9 -9 -9 -9 -8 -8 -9 -9 -9 -9 -10 -10 -11 -11 -11 -12 -12 -13 -16 -20 -23 -26 -26 -27 -27 -26 -24
-9 -7 -8 -10 -7 -7 -9 -7 -9 -8 -8 -8 -9 -7 -7 -6 -8 -8 -9 -11 -12 -11 -11 -11 -10 -11 -11 -11 -11 -11 -10 -10 -10 -10 -11 -11 -11 -11 -12 -12 -12 -13 -13 -16 -22 -25 -27 -27 -27 -26 -26 -24 -22 -21
-7 -6 -7 -6 -6 -7 -8 -6 -9 -6 -10 -10 -7 -6 -5 -12 -12 -10 -11 -12 -13 -12 -12 -12 -12 -12 -12 -12 -12 -12 -12 -12 -11 -12 -12 -12 -12 -13 -13 -13 -15 -17 -21 -24 -25 -25 -24 -24 -23 -23 -22 -21 -20 -19
-8 -7 -6 -6 -5 -5 -7 -6 -7 -9 -10 -7 -9 -12 -9 -13 -12 -11 -12 -12 -13 -13 -13 -13 -12 -13 -13 -13 -13 -14 -14 -14 -14 -14 -15 -15 -17 -18 -18 -21 -23 -23 -24 -24 -23 -23 -22 -22 -21 -21 -21 -21 -20 -20
-5 -5 -6 -8 -8 -7 -10 -10 -12 -10 -11 -8 -9 -13 -15 -15 -13 -13 -13 -13 -13 -13 -14 -14 -14 -14 -14 -14 -14 -14 -14 -15 -15 -16 -16 -17 -18 -19 -22 -25 -25 -24 -22 -21 -21 -21 -20 -20 -20 -20 -21 -21 -21 -21
-6 -6 -7 -9 -9 -9 -8 -9 -8 -9 -9 -9 -13 -14 -14 -15 -15 -14 -14 -14 -14 -14 -14 -15 -15 -15 -16 -22 -21 -19 -16 -16 -16 -19 -21 -24 -24 -24 -25 -23 -22 -21 -20 -20 -20 -20 -21 -21 -21 -21 -22 -22 -22 -22
-8 -7 -8 -9 -11 -10 -8 -10 -10 -10 -12 -14 -15 -15 -16 -16 -15 -15 -15 -15 -15 -15 -16 -15 -15 -15 -16 -18 -18 -18 -19 -22 -24 -25 -24 -24 -24 -23 -22 -22 -21 -21 -21 -21 -21 -21 -21 -21 -22 -22 -22 -22 -23 -23
-9 -8 -8 -8 -9 -8 -9 -10 -12 -13 -13 -14 -15 -17 -17 -16 -16 -16 -16 -16 -16 -16 -16 -17 -20 -19 -18 -18 -19 -20 -20 -22 -24 -24 -24 -23 -22 -22 -22 -22 -21 -21 -21 -21 -21 -21 -21 -21 -22 -22 -23 -23 -23 -23
-9 -8 -8 -11 -9 -9 -9 -9 -9 -11 -11 -12 -13 -15 -15 -16 -17 -17 -18 -17 -17 -17 -18 -18 -17 -17 -17 -18 -18 -22 -24 -24 -23 -23 -23 -23 -23 -23 -23 -23 -22 -23 -23 -23 -22 -22 -22 -22 -22 -23 -23 -24 -24 -24
-9 -11 -11 -9 -9 -8 -10 -9 -10 -11 -12 -12 -13 -14 -15 -17 -17 -18 -18 -17 -18 -18 -18 -18 -18 -18 -18 -19 -20 -23 -23 -24 -24 -25 -25 -24 -25 -25 -24 -24 -24 -24 -24 -24 -23 -23 -23 -23 -23 -23 -24 -24 -24 -24

GFSWCAN_850_dewp_051.txt.gz
Dewpoint
-1 -1 -1 -1 -2 -2 -1 -1 -1 -2 -3 -6 -7 -8 -6 -4 -4 0 -0 1 2 2 2 4 4 4 2 1 3 4 5 6 5 5 5 4 2 4 3 3 3 5 5 3 2 1 4 -2 -2 -3 -2 -1 -1 -0
-2 -2 -2 -2 -2 -2 -2 -3 -3 -8 -10 -9 -8 -5 -5 -4 -2 -1 -0 1 1 2 2 4 4 4 4 2 2 4 4 5 5 6 4 4 4 1 3 5 2 3 3 4 3 3 1 1 -1 -2 -1 -1 0 0
-4 -4 -4 -5 -5 -5 -6 -7 -7 -6 -4 -2 -2 -2 -3 -1 -1 -1 0 1 1 1 1 1 2 5 5 5 2 3 6 5 6 5 5 5 5 3 4 3 4 2 2 4 3 3 4 3 1 -0 -0 -0 1 1
-4 -3 -3 -3 -3 -3 -3 -3 -3 -3 -4 -5 -4 -4 -4 -3 -3 -2 1 1 0 2 2 2 3 4 7 8 5 2 2 4 5 6 4 3 4 4 2 4 4 3 2 4 4 3 3 3 2 2 2 2 2 3
-4 -4 -5 -4 -4 -3 -3 -3 -3 -3 -3 -3 -2 -3 -2 -1 -1 1 0 -1 -1 -0 3 4 3 3 6 7 4 4 3 4 5 4 2 4 5 5 4 4 4 2 3 4 4 3 2 2 2 2 2 2 2 2
-4 -4 -4 -4 -4 -3 -1 -1 -1 -1 -1 -1 0 -0 0 0 0 0 -1 0 -0 0 0 3 4 3 7 7 6 6 5 5 4 3 4 5 6 3 4 5 2 2 1 0 2 3 2 2 1 1 1 1 1 1
-2 -2 -3 -4 -4 -3 -1 -1 -2 -2 -1 -1 -1 -1 -0 -0 -0 -2 -2 -1 -2 2 1 2 3 4 8 8 7 8 7 6 6 6 5 4 5 2 -1 3 3 3 3 2 2 2 1 1 1 1 0 -0 -1 -1
-3 -4 -5 -4 -3 -2 -2 -3 -4 -6 -6 -6 -7 -6 -4 -2 -2 -4 1 3 -1 1 1 3 3 5 6 7 7 7 6 6 5 6 5 2 4 1 3 3 3 2 2 2 1 1 1 1 0 -0 -0 -1 -1 -2
-4 -5 -5 -6 -6 -6 -5 -5 -6 -7 -6 -5 -2 -2 -2 -3 -4 -4 1 2 1 0 2 2 4 5 5 6 6 6 5 4 5 3 4 4 2 4 2 2 2 2 2 1 1 1 1 0 -0 -1 -1 -2 -3 -4
-4 -5 -6 -6 -5 -6 -6 -7 -8 -7 -4 -3 -1 -0 1 -3 -1 1 3 2 3 2 3 2 4 4 5 4 3 3 4 3 4 4 4 3 3 2 2 2 2 1 2 2 0 -1 -0 -1 -2 -2 -3 -3 -4 -4
-3 -4 -6 -6 -6 -6 -5 -5 -5 -5 -5 -1 1 2 0 2 2 2 2 2 2 2 3 3 4 4 4 3 3 2 2 2 5 4 5 4 3 2 2 1 1 1 1 2 2 1 -0 -1 -2 -3 -4 -4 -5 -6
2 0 -2 -3 -3 -4 -6 -6 -7 -6 -3 1 4 3 3 2 3 2 1 1 1 2 2 2 3 4 4 3 1 2 2 0 4 2 3 4 1 1 1 1 1 1 1 1 1 0 -1 -2 -3 -3 -3 -5 -6 -10
3 3 1 -1 -1 -1 -0 -0 -2 -1 2 4 3 3 2 1 2 2 3 2 2 1 2 3 2 2 2 1 0 -1 -0 1 0 3 4 1 1 2 1 1 1 0 0 -0 -1 -1 -2 -2 -2 -3 -3 -6 -12 -12
4 3 3 1 -0 -0 0 1 1 2 4 3 1 1 1 1 0 0 1 1 0 1 2 3 1 1 1 1 0 -0 2 1 -1 0 0 1 1 1 1 0 0 -0 -1 -1 -1 -2 -2 -2 -3 -4 -9 -12 -13 -14
4 5 4 3 3 2 2 3 3 3 0 -0 0 0 -0 -1 -1 -1 -0 -0 1 2 2 1 1 1 1 1 0 1 2 2 -1 -1 1 0 -0 -0 -0 -0 -0 -1 -1 -1 -1 -1 -2 -4 -9 -11 -11 -12 -14 -17
3 4 4 4 4 3 3 2 0 -2 -2 -1 -2 -0 -1 -0 -1 -1 -1 -0 1 2 1 1 -1 -1 2 1 1 1 -1 0 1 -0 -1 -1 -1 -1 -1 -1 -1 -1 -1 -2 -2 -3 -7 -7 -6 -6 -9 -15 -16 -16
3 2 1 2 3 3 3 3 -2 -3 -3 -2 -2 -2 -2 -2 -2 -2 -2 -1 1 1 1 -1 1 2 0 1 1 -0 -0 -1 -1 -1 -1 -1 -1 -2 -2 -2 -2 -2 -2 -3 -6 -6 -5 -5 -7 -12 -14 -15 -15 -15
0 0 -0 -0 0 1 1 -1 -2 -3 -2 -2 -2 -2 -3 -4 -3 -3 -2 -1 0 0 -0 -1 -1 -2 -2 -1 -1 -1 -2 -2 -2 -2 -2 -2 -2 -2 -2 -2 -3 -4 -5 -5 -5 -5 -6 -9 -12 -13 -13 -14 -14 -14
-15 -6 1 1 -3 -4 -4 -3 -3 -2 -2 -2 -3 -3 -4 -5 -5 -4 -3 -3 -3 -2 -4 -4 -4 -4 -4 -4 -3 -3 -3 -3 -3 -3 -3 -3 -2 -2 -3 -3 -4 -4 -4 -5 -5 -6 -7 -7 -10 -13 -13 -13 -14 -16
-10 -13 -2 1 -2 -5 -3 -3 -3 -2 -2 -2 -4 -5 -6 -6 -6 -6 -6 -6 -6 -6 -6 -6 -7 -7 -7 -6 -4 -3 -3 -3 -3 -4 -4 -4 -3 -3 -4 -4 -4 -5 -5 -6 -6 -7 -8 -11 -12 -13 -14 -17 -19 -21
-15 -11 -8 -6 -5 -4 -3 -2 -2 -2 -2 -2 -3 -4 -5 -7 -9 -9 -9 -10 -8 -6 -7 -8 -8 -9 -8 -6 -4 -3 -3 -3 -4 -4 -5 -6 -5 -4 -5 -5 -5 -6 -6 -7 -8 -9 -10 -10 -11 -12 -14 -18 -23 -23
-20 -18 -14 -9 -6 -6 -5 -3 -3 -3 -3 -2 -3 -3 -3 -5 -7 -9 -11 -10 -9 -10 -9 -9 -9 -9 -8 -8 -7 -6 -6 -4 -5 -5 -5 -6 -6 -7 -7 -8 -7 -8 -9 -9 -10 -10 -11 -11 -12 -12 -13 -18 -22 -22
-24 -18 -11 -9 -9 -7 -7 -6 -5 -3 -4 -3 -5 -5 -4 -4 -7 -11 -9 -10 -11 -11 -10 -10 -10 -9 -9 -8 -7 -7 -7 -7 -7 -7 -7 -8 -8 -9 -9 -9 -9 -10 -11 -12 -12 -12 -12 -13 -13 -14 -19 -24 -24 -25
-16 -10 -7 -7 -7 -8 -8 -7 -6 -6 -6 -7 -6 -6 -5 -5 -10 -11 -10 -11 -12 -11 -11 -11 -10 -10 -9 -9 -10 -10 -10 -9 -9 -9 -10 -9 -10 -11 -11 -11 -12 -12 -13 -13 -13 -14 -14 -17 -21 -24 -25 -26 -25 -24
-10 -8 -9 -12 -8 -8 -12 -12 -10 -9 -10 -10 -10 -9 -6 -9 -11 -11 -11 -12 -13 -13 -12 -12 -11 -12 -12 -12 -12 -11 -11 -11 -11 -11 -12 -12 -12 -12 -13 -13 -13 -13 -14 -16 -21 -25 -26 -25 -25 -24 -24 -23 -23 -22
-8 -5 -7 -6 -7 -9 -10 -9 -9 -10 -12 -11 -7 -7 -11 -15 -15 -12 -12 -13 -14 -13 -13 -13 -13 -13 -13 -13 -13 -13 -13 -12 -12 -13 -13 -13 -13 -14 -14 -16 -19 -21 -23 -25 -24 -24 -23 -23 -22 -22 -21 -21 -21 -20
-8 -8 -7 -8 -6 -6 -9 -8 -9 -12 -11 -10 -11 -13 -15 -16 -15 -12 -13 -13 -14 -14 -14 -13 -14 -14 -14 -14 -14 -14 -15 -15 -15 -15 -16 -18 -18 -19 -22 -24 -24 -23 -23 -23 -22 -22 -22 -21 -21 -21 -21 -21 -21 -21
-5 -7 -10 -9 -9 -8 -13 -14 -14 -12 -12 -9 -13 -17 -17 -17 -14 -14 -14 -14 -14 -14 -14 -14 -15 -18 -17 -15 -14 -15 -16 -16 -17 -17 -19 -20 -22 -24 -25 -24 -23 -22 -21 -21 -21 -21 -21 -21 -21 -21 -21 -21 -22 -22
-7 -7 -9 -11 -9 -9 -9 -11 -11 -10 -11 -11 -17 -16 -15 -16 -15 -15 -14 -14 -14 -14 -15 -15 -15 -15 -17 -21 -20 -20 -22 -23 -22 -24 -25 -25 -25 -24 -24 -23 -22 -22 -22 -22 -21 -21 -21 -21 -21 -21 -22 -22 -22 -23
-9 -8 -9 -9 -13 -12 -10 -11 -12 -14 -15 -15 -16 -17 -17 -17 -16 -15 -15 -15 -15 -16 -16 -16 -16 -16 -17 -19 -19 -19 -19 -21 -24 -24 -24 -24 -24 -24 -24 -24 -24 -23 -23 -22 -22 -22 -21 -21 -21 -22 -22 -22 -23 -23
-9 -8 -9 -9 -9 -10 -11 -13 -14 -14 -16 -17 -17 -18 -18 -17 -17 -17 -17 -17 -17 -17 -17 -18 -18 -18 -17 -18 -18 -19 -22 -24 -25 -25 -25 -25 -25 -25 -24 -24 -24 -24 -24 -24 -24 -24 -23 -22 -22 -22 -22 -23 -24 -24
-9 -9 -9 -13 -10 -11 -12 -10 -12 -13 -13 -15 -16 -16 -16 -17 -17 -18 -18 -18 -18 -17 -18 -17 -17 -18 -18 -18 -21 -23 -25 -25 -25 -26 -26 -26 -25 -25 -25 -24 -24 -24 -24 -24 -24 -24 -23 -23 -23 -23 -23 -24 -24 -24
-11 -11 -10 -10 -9 -9 -10 -10 -11 -12 -13 -13 -14 -15 -16 -17 -18 -18 -18 -18 -18 -18 -18 -18 -18 -19 -21 -22 -23 -25 -26 -26 -25 -25 -25 -24 -24 -24 -24 -24 -24 -24 -24 -24 -23 -23 -23 -23 -23 -24 -24 -24 -24 -24

GFSWCAN_850_dewp_057.txt.gz
Dewpoint
-1 -1 -0 -1 -1 -1 -1 -1 -0 1 0 -0 -0 -1 -1 -4 -0 0 0 0 -0 1 2 2 2 0 -1 -0 2 1 2 2 4 4 4 4 5 5 5 4 5 5 5 5 3 5 5 -1 -4 1 0 -4 -5 -2
-0 -0 0 0 0 0 0 1 1 0 -0 -0 -0 -1 -3 -3 0 -0 0 0 0 1 2 2 3 3 0 -1 -1 -0 0 3 2 4 4 4 5 3 4 4 3 6 4 5 4 5 1 -3 -2 -5 -5 -5 -4 -3
-1 -0 0 1 -0 1 0 -0 -0 -0 -0 -1 -2 -3 0 -1 0 -0 -1 0 0 1 0 0 1 3 3 1 -0 1 2 2 2 3 4 5 5 3 6 5 4 3 3 4 3 2 2 0 -1 -2 -3 -4 -4 -3
-2 -1 -1 -1 -1 -1 -1 -1 -1 -1 -1 -0 -1 -1 -1 -0 -0 -1 -2 -1 -0 0 -0 -1 -0 1 1 3 2 -0 1 3 5 5 4 4 5 2 4 4 4 3 4 4 4 3 3 2 0 -1 -1 -2 -2 -1
-2 -2 -2 -1 -2 -1 -2 -2 -2 -1 -1 -1 -1 -1 -1 -3 -3 -2 -2 -1 -1 -0 0 -2 -1 -0 3 4 4 2 0 2 5 4 3 5 3 4 3 3 4 3 3 5 5 2 1 0 -1 0 -0 -0 -1 -1
-5 -4 -2 -1 -2 -1 -2 -2 -1 -1 -1 -1 -1 -1 -1 -2 -4 -5 -1 -2 -4 -3 -1 0 -3 -2 1 4 4 5 4 2 4 4 4 3 3 4 5 6 3 1 1 0 1 -1 0 -0 -0 1 0 0 0 -0
-4 -4 -5 -5 -2 -2 -4 -3 -5 -2 -3 -5 -4 -3 -4 -6 -7 -7 -7 -5 -6 -3 1 0 2 -0 3 5 6 6 6 6 5 4 4 4 5 4 3 6 2 1 1 1 1 1 1 1 1 1 1 1 1 0
-3 -4 -4 -4 -5 -6 -7 -7 -7 -7 -8 -8 -7 -6 -8 -9 -8 -7 -5 -2 -2 0 1 1 1 3 5 6 6 6 6 6 6 4 3 4 4 2 5 2 2 1 2 2 2 2 1 1 1 1 1 1 1 0
-3 -2 -2 -3 -3 -4 -4 -4 -4 -3 -4 -3 -3 -4 -2 -1 -2 -3 -0 0 -1 1 1 -0 2 4 5 5 5 5 5 4 5 4 4 4 4 6 4 2 2 2 2 2 2 1 1 1 1 1 1 1 1 -0
-3 -3 -1 -2 -1 -1 -1 -2 -4 -4 -3 -2 -2 -1 -1 -1 -0 1 0 0 -1 -1 1 1 1 3 4 4 3 3 3 4 5 4 4 4 5 3 2 2 2 2 2 2 1 -0 0 0 0 -0 -0 -0 -0 -1
-2 -3 -3 -2 -3 -1 -1 -1 -2 -3 -2 -1 -1 -1 -1 -1 0 1 1 1 0 2 1 1 2 3 4 3 3 2 2 2 5 5 6 6 5 3 2 2 2 2 2 1 1 1 0 1 0 -0 -1 -2 -2 -3
-3 -3 -3 -5 -4 -2 -1 -1 -1 -1 -1 0 0 -1 -1 -1 -1 0 1 1 1 1 2 2 2 2 3 3 3 2 3 2 5 2 4 5 2 1 2 2 2 1 1 1 1 0 -0 -1 -0 -1 -2 -2 -3 -3
-6 -5 -4 -4 -5 -3 -2 -1 -1 -2 1 -1 -1 0 0 -0 1 2 3 2 3 1 2 2 2 3 3 2 1 1 3 3 1 4 5 2 1 1 1 1 1 1 1 1 1 1 0 -1 -2 -1 -2 -2 -2 -3
-6 -6 -5 -5 -5 -5 -4 -2 -3 -2 -1 -1 -0 1 0 0 -0 -0 1 1 -0 1 1 2 1 1 1 1 1 3 2 1 4 4 2 1 -0 -0 1 1 1 -0 -0 1 -0 -1 -2 -2 -3 -2 -2 -3 -3 -4
-4 -3 -3 -3 -3 -3 -3 -2 -3 -3 -1 -2 -1 0 -0 -1 -1 -1 -1 -1 -0 0 1 1 1 1 1 1 1 2 3 2 1 1 1 -1 -1 -1 -1 -1 -1 -1 -2 -2 -2 -2 -2 -3 -3 -4 -4 -4 -6 -12
-2 -2 -2 -2 -2 -2 -2 -2 -2 -2 -2 -3 -4 -4 -3 -2 -3 -3 -3 -2 -1 -0 1 1 1 2 2 1 1 1 1 1 0 -1 -2 -2 -2 -2 -2 -2 -2 -2 -2 -3 -3 -3 -4 -4 -4 -5 -10 -12 -8 -6
-0 -0 -0 -1 -1 -1 -1 -1 -2 -2 -2 -3 -4 -6 -5 -5 -5 -5 -5 -4 -1 0 1 0 -1 -1 -0 0 -1 -2 -2 -2 -3 -3 -3 -3 -3 -4 -3 -3 -4 -3 -4 -4 -4 -4 -5 -6 -8 -8 -8 -8 -7 -9
1 1 -0 -0 -1 -1 -1 -1 -2 -4 -4 -6 -5 -6 -7 -7 -7 -6 -6 -5 -2 -2 -3 -4 -4 -4 -4 -3 -4 -5 -6 -4 -4 -4 -5 -4 -4 -4 -4 -5 -5 -5 -5 -5 -5 -6 -7 -7 -7 -8 -8 -9 -10 -12
1 0 0 -0 -0 -0 -2 -2 -3 -5 -6 -7 -7 -7 -8 -8 -8 -8 -7 -6 -6 -6 -7 -7 -8 -8 -8 -8 -9 -8 -6 -5 -6 -7 -6 -6 -6 -6 -6 -6 -6 -6 -6 -6 -6 -7 -8 -8 -8 -9 -9 -10 -11 -13
1 0 0 -1 -3 -4 -3 -3 -4 -5 -4 -6 -6 -8 -9 -9 -9 -9 -10 -9 -10 -10 -10 -10 -10 -10 -10 -10 -10 -9 -6 -6 -7 -8 -8 -7 -7 -6 -6 -6 -6 -7 -7 -8 -8 -8 -9 -9 -10 -10 -11 -11 -11 -12
0 0 -2 -5 -5 -4 -3 -3 -3 -4 -4 -5 -8 -9 -10 -12 -12 -12 -12 -13 -13 -10 -10 -11 -11 -12 -11 -11 -10 -9 -7 -6 -8 -9 -10 -9 -9 -8 -8 -8 -8 -8 -9 -9 -9 -10 -10 -11 -11 -12 -12 -12 -12 -13
-7 -8 -8 -8 -7 -6 -5 -3 -3 -3 -4 -3 -4 -6 -7 -8 -10 -12 -14 -13 -12 -12 -12 -12 -12 -12 -12 -12 -11 -10 -9 -9 -9 -9 -9 -9 -9 -9 -10 -10 -9 -10 -11 -11 -11 -12 -12 -13 -13 -13 -13 -13 -13 -14
-17 -15 -12 -10 -9 -8 -8 -6 -6 -6 -6 -6 -7 -8 -9 -10 -12 -15 -12 -13 -13 -14 -13 -12 -12 -12 -12 -11 -10 -10 -10 -10 -10 -11 -11 -11 -11 -11 -11 -12 -12 -12 -13 -13 -13 -13 -13 -14 -14 -15 -16 -17 -20 -22
-16 -12 -10 -9 -9 -11 -8 -7 -8 -8 -8 -8 -8 -8 -8 -9 -13 -13 -13 -13 -14 -14 -13 -13 -12 -12 -12 -11 -12 -12 -12 -12 -12 -12 -12 -12 -12 -13 -13 -14 -14 -15 -17 -18 -20 -21 -23 -24 -24 -24 -24 -23 -23 -23
-10 -8 -9 -9 -7 -11 -11 -10 -12 -10 -9 -10 -10 -10 -12 -13 -13 -13 -13 -14 -15 -14 -14 -14 -13 -13 -14 -14 -14 -13 -13 -12 -13 -14 -14 -16 -17 -19 -21 -22 -23 -24 -24 -24 -25 -24 -24 -24 -24 -24 -23 -23 -23 -22
-9 -8 -8 -8 -8 -10 -9 -8 -10 -13 -13 -13 -12 -13 -15 -16 -16 -14 -14 -14 -15 -15 -15 -15 -14 -14 -15 -15 -15 -16 -17 -18 -18 -19 -21 -22 -23 -23 -23 -23 -23 -23 -24 -24 -24 -25 -24 -24 -24 -23 -22 -22 -22 -22
-9 -11 -10 -10 -8 -10 -12 -12 -12 -14 -14 -13 -14 -17 -18 -17 -16 -14 -15 -15 -15 -15 -15 -15 -15 -15 -16 -16 -17 -18 -20 -20 -20 -21 -22 -23 -23 -24 -24 -25 -25 -26 -25 -25 -25 -25 -25 -24 -24 -24 -23 -23 -22 -22
-8 -11 -13 -11 -12 -12 -16 -17 -16 -14 -14 -13 -17 -19 -20 -19 -16 -16 -15 -15 -15 -15 -16 -18 -17 -16 -17 -20 -21 -21 -21 -22 -22 -23 -23 -24 -26 -27 -27 -27 -26 -26 -26 -26 -26 -26 -25 -25 -25 -24 -24 -24 -23 -23
-9 -10 -12 -14 -13 -13 -14 -16 -15 -15 -15 -15 -19 -19 -17 -18 -17 -17 -16 -16 -16 -16 -16 -16 -18 -19 -19 -20 -20 -20 -22 -24 -25 -27 -29 -29 -28 -27 -27 -26 -26 -26 -25 -25 -25 -25 -25 -25 -24 -24 -24 -24 -24 -24
-11 -11 -12 -13 -17 -16 -16 -16 -16 -16 -16 -17 -17 -18 -18 -18 -17 -16 -16 -16 -16 -16 -17 -17 -18 -19 -19 -19 -19 -21 -25 -28 -29 -28 -27 -27 -26 -26 -25 -25 -26 -26 -25 -25 -25 -25 -25 -25 -25 -25 -25 -25 -25 -24
-9 -12 -11 -12 -14 -14 -17 -17 -18 -18 -18 -18 -18 -18 -18 -18 -18 -18 -17 -17 -17 -17 -18 -17 -17 -17 -18 -19 -23 -27 -28 -27 -27 -26 -26 -26 -25 -25 -26 -26 -26 -25 -25 -25 -26 -26 -27 -27 -27 -26 -26 -25 -25 -25
-10 -12 -12 -16 -13 -15 -14 -13 -15 -16 -16 -17 -17 -18 -18 -18 -18 -18 -18 -18 -18 -18 -17 -18 -18 -19 -21 -25 -27 -27 -26 -26 -26 -26 -26 -26 -27 -26 -26 -26 -25 -25 -25 -26 -27 -27 -27 -27 -27 -26 -26 -26 -25 -25
-11 -11 -12 -13 -14 -15 -14 -13 -14 -14 -14 -15 -16 -16 -17 -18 -18 -18 -18 -18 -18 -18 -20 -24 -25 -27 -27 -27 -26 -26 -26 -26 -27 -27 -28 -28 -27 -26 -26 -25 -25 -25 -26 -26 -27 -27 -27 -27 -27 -26 -26 -26 -26 -25

GFSWCAN_850_dewp_063.txt.gz
Dewpoint
0 0 0 0 0 1 1 2 0 -1 -1 -1 0 0 -0 1 0 0 1 -0 1 -1 -3 -1 -1 -4 -5 -5 1 -2 2 2 4 5 3 1 5 -3 -3 -3 5 6 7 9 7 9 8 -1 -2 0 0 -4 -3 -3
-0 0 -0 -0 0 0 1 1 1 -1 -1 0 0 0 -0 1 0 0 1 0 -1 -0 1 1 1 -1 -2 -7 -4 -3 1 -1 -1 0 2 0 6 7 -1 4 -0 7 3 6 4 4 1 -1 -2 -2 -3 -1 -1 -2
-0 0 0 -1 0 0 0 0 -0 -1 0 1 1 0 0 1 -0 1 1 -1 -1 -0 3 1 -1 2 1 1 1 -1 -0 -3 -3 -3 -1 2 5 1 7 2 -1 1 0 5 3 1 -0 -0 0 -1 -0 -0 -1 0
-0 -0 1 -0 -1 0 1 1 1 1 1 1 0 0 1 -0 0 1 -0 0 -1 2 2 0 1 -1 -0 2 3 3 -1 -2 -2 -0 2 5 5 -5 3 -2 -1 -3 -3 1 1 -2 -3 0 1 1 -1 1 0 -0
-0 -0 0 1 0 -1 0 -0 0 0 0 1 1 1 -0 -0 0 0 0 0 -1 -3 -1 -0 1 0 -2 -0 3 3 3 0 1 2 5 4 -3 -4 -1 1 1 -5 -3 3 4 -1 1 0 0 2 1 1 2 0
-1 -1 -0 -0 -0 1 1 1 1 1 0 -0 -0 -0 -0 -0 -1 0 0 1 1 -0 -2 -0 -1 2 -2 -1 3 2 2 2 2 2 4 -2 -5 -1 6 4 -2 -5 -6 -4 -1 -1 0 3 2 1 2 2 2 1
-1 -1 -1 -0 -1 -0 -0 0 -0 -0 -0 -0 -0 -0 -0 -0 0 -0 -0 -1 -2 -2 -4 -2 -2 -2 1 -1 2 2 1 2 2 3 4 2 -0 2 6 5 -3 -4 -3 -3 -2 -0 3 2 2 2 2 2 2 2
-2 -2 -1 -1 -1 -0 -1 -1 -0 -1 -0 -1 -0 -0 -0 -0 -1 -2 -1 -3 -3 -2 -3 -3 -0 1 0 -0 3 3 2 1 1 2 1 3 2 4 5 -0 -2 -1 -2 -1 0 2 3 3 3 2 2 2 2 1
-3 -3 -2 -1 -1 -1 -1 -1 -1 -1 -1 -1 -1 -1 -2 -1 -1 -0 -4 -1 -0 -1 -3 1 1 3 3 1 2 4 3 4 2 5 4 2 4 5 1 -1 -2 -1 -0 0 -0 1 2 2 2 2 2 1 1 1
-6 -8 -6 -3 -1 -1 -1 -1 -2 -1 -1 -1 -2 -2 -3 -0 -4 -4 0 -0 -2 -2 1 0 0 3 3 4 5 4 5 5 5 6 3 5 5 -0 0 3 2 2 3 3 3 3 3 2 2 2 1 1 1 0
-4 -3 -3 -4 -5 -4 -2 -2 -3 -4 -2 -1 -1 -1 -1 -3 -0 1 0 -0 0 0 -0 -1 -1 1 1 2 5 4 5 5 6 6 7 6 6 3 2 3 3 3 3 3 2 2 2 2 2 2 1 1 0 -0
-2 -3 -3 -3 -4 -5 -4 -3 -3 -2 -1 -0 -1 -2 -1 -0 0 1 1 0 -0 -2 -0 1 1 1 0 0 4 3 5 4 7 4 5 5 2 1 1 1 1 2 2 1 1 1 1 1 1 1 -0 -1 -1 -2
-2 -3 -2 -2 -3 -3 -4 -2 -3 -2 -1 -1 -0 -0 0 -0 2 2 0 1 2 1 2 2 3 1 1 2 4 5 6 6 3 5 4 2 -0 -1 -1 -1 -1 -0 -0 -1 -0 -0 -0 -0 -1 -1 -2 -3 -3 -4
-3 -4 -2 -2 -2 -2 -3 -1 -0 -0 0 -0 0 1 2 1 0 0 -1 2 0 1 2 3 3 3 2 4 3 5 3 4 5 6 3 -1 -2 -2 -3 -3 -3 -4 -3 -3 -3 -3 -3 -3 -4 -5 -5 -6 -6 -6
-2 -2 -2 -2 -2 -2 -2 -4 -3 -4 -2 -2 -3 -2 -1 -2 -3 -3 -4 -1 -2 -0 2 3 2 2 2 3 2 3 4 4 2 1 -1 -2 -3 -4 -4 -5 -5 -5 -5 -5 -5 -6 -6 -6 -6 -7 -6 -6 -6 -6
-2 -1 -1 -1 -2 -2 -4 -6 -6 -4 -2 -5 -7 -5 -6 -3 -4 -5 -5 -4 -3 -1 1 2 2 4 3 3 2 1 2 -0 -1 -2 -3 -4 -5 -5 -5 -6 -6 -6 -6 -6 -7 -7 -7 -6 -7 -7 -6 -7 -7 -7
-3 -3 -4 -5 -4 -2 -2 -3 -5 -5 -4 -5 -5 -7 -7 -6 -6 -6 -5 -5 -4 -2 1 1 0 -0 -0 -0 -2 -3 -3 -3 -4 -4 -4 -5 -5 -6 -6 -6 -7 -7 -7 -7 -7 -8 -8 -7 -7 -7 -8 -8 -8 -9
-2 -3 -3 -5 -4 -4 -5 -4 -4 -5 -6 -6 -6 -6 -7 -8 -8 -7 -6 -6 -3 -3 -4 -4 -6 -5 -5 -4 -5 -6 -6 -5 -6 -7 -7 -7 -7 -7 -7 -7 -7 -8 -8 -8 -8 -8 -8 -8 -9 -10 -10 -10 -10 -11
-1 -2 -2 -1 -1 -2 -3 -3 -4 -6 -6 -6 -7 -8 -7 -8 -9 -8 -7 -7 -7 -6 -6 -7 -8 -8 -8 -9 -9 -7 -6 -6 -7 -8 -9 -9 -9 -9 -9 -9 -9 -9 -9 -9 -9 -10 -10 -10 -10 -10 -11 -11 -11 -11
-1 -1 -1 -1 -2 -2 -2 -3 -5 -5 -5 -6 -6 -7 -8 -8 -9 -9 -9 -8 -8 -9 -9 -9 -10 -11 -10 -10 -10 -9 -7 -8 -8 -9 -10 -10 -11 -10 -10 -10 -11 -11 -11 -11 -11 -11 -11 -11 -12 -12 -12 -12 -12 -13
-2 -2 -2 -5 -2 -3 -3 -3 -4 -5 -4 -5 -5 -8 -8 -9 -10 -11 -11 -13 -12 -11 -11 -11 -11 -12 -12 -12 -11 -11 -10 -10 -10 -10 -11 -11 -11 -12 -11 -12 -11 -11 -12 -12 -12 -13 -13 -13 -14 -14 -14 -14 -14 -15
-3 -5 -7 -6 -5 -4 -4 -4 -4 -3 -4 -5 -8 -9 -8 -9 -10 -12 -13 -13 -12 -11 -11 -12 -12 -11 -12 -12 -12 -12 -12 -12 -12 -12 -12 -12 -13 -13 -13 -13 -12 -13 -13 -14 -14 -14 -15 -16 -15 -16 -15 -16 -16 -20
-10 -11 -10 -9 -7 -5 -5 -5 -5 -6 -5 -6 -8 -8 -9 -9 -11 -12 -12 -13 -12 -11 -11 -12 -13 -13 -13 -13 -13 -13 -13 -12 -13 -13 -13 -13 -14 -14 -14 -14 -15 -15 -15 -16 -16 -17 -18 -19 -21 -17 -17 -17 -17 -17
-15 -12 -9 -5 -5 -5 -5 -6 -7 -7 -7 -7 -8 -8 -9 -10 -11 -13 -12 -12 -12 -12 -12 -12 -11 -12 -12 -13 -14 -14 -14 -14 -14 -14 -14 -14 -15 -16 -16 -16 -16 -16 -16 -17 -17 -17 -18 -18 -18 -18 -19 -19 -19 -19
-10 -8 -6 -6 -6 -6 -6 -6 -6 -7 -7 -8 -8 -9 -10 -11 -11 -11 -12 -12 -13 -13 -12 -13 -12 -12 -13 -14 -15 -15 -15 -15 -15 -15 -15 -14 -15 -16 -17 -20 -22 -21 -18 -17 -18 -18 -19 -19 -19 -19 -20 -20 -21 -20
-7 -8 -8 -7 -7 -7 -7 -6 -7 -7 -8 -8 -9 -11 -10 -11 -11 -11 -13 -12 -13 -13 -14 -13 -13 -14 -15 -15 -15 -16 -16 -15 -16 -18 -19 -18 -16 -16 -16 -17 -17 -20 -20 -20 -19 -19 -20 -20 -20 -20 -20 -20 -21 -21
-7 -7 -9 -10 -9 -9 -8 -9 -9 -9 -9 -9 -10 -10 -11 -11 -11 -13 -14 -14 -14 -15 -15 -15 -14 -15 -16 -16 -17 -19 -22 -23 -25 -26 -27 -29 -29 -28 -23 -22 -24 -23 -23 -21 -22 -21 -21 -21 -21 -21 -21 -21 -22 -22
-9 -10 -9 -10 -11 -11 -10 -10 -10 -10 -11 -12 -12 -12 -12 -12 -13 -13 -14 -15 -16 -16 -16 -16 -17 -16 -17 -17 -17 -17 -20 -24 -27 -23 -20 -23 -26 -27 -27 -27 -27 -27 -27 -28 -28 -29 -29 -29 -28 -27 -27 -23 -25 -23
-9 -10 -13 -13 -12 -13 -13 -12 -12 -13 -14 -13 -13 -14 -15 -16 -15 -15 -16 -16 -16 -16 -16 -17 -18 -18 -19 -20 -21 -25 -29 -20 -19 -21 -18 -18 -19 -23 -27 -27 -27 -27 -27 -25 -29 -29 -29 -29 -29 -29 -28 -26 -22 -23
-10 -10 -12 -13 -13 -12 -13 -13 -14 -15 -14 -14 -16 -16 -16 -17 -18 -17 -16 -16 -16 -16 -17 -17 -17 -17 -17 -17 -22 -28 -29 -28 -27 -19 -18 -19 -21 -26 -27 -26 -26 -27 -28 -28 -29 -27 -29 -28 -27 -26 -27 -26 -27 -26
-9 -10 -12 -13 -13 -13 -14 -15 -15 -15 -15 -14 -14 -15 -16 -16 -18 -18 -17 -17 -17 -17 -17 -18 -17 -17 -18 -21 -18 -19 -22 -27 -27 -27 -27 -27 -27 -27 -26 -26 -26 -27 -28 -28 -29 -29 -28 -28 -26 -27 -27 -27 -27 -27
-10 -11 -12 -13 -13 -14 -14 -12 -13 -13 -13 -14 -14 -15 -16 -15 -15 -17 -17 -17 -18 -17 -17 -18 -18 -18 -23 -27 -27 -27 -27 -27 -28 -28 -28 -27 -27 -27 -27 -26 -26 -27 -27 -28 -28 -28 -28 -28 -28 -28 -28 -27 -27 -27
-11 -11 -12 -13 -13 -13 -13 -12 -13 -13 -14 -14 -14 -14 -15 -14 -15 -17 -18 -18 -18 -18 -18 -18 -22 -26 -27 -27 -27 -27 -27 -28 -27 -28 -28 -28 -28 -27 -27 -26 -26 -26 -27 -27 -27 -28 -28 -28 -27 -27 -27 -27 -27 -27

GFSWCAN_850_dewp_069.txt.gz
Dewpoint
-1 -0 0 -0 -0 1 1 1 1 0 0 0 -0 -0 -0 0 -1 -0 -0 -1 1 1 -0 -1 -2 -2 -2 -2 -0 -2 -1 -1 3 4 4 4 2 4 2 4 5 5 6 6 6 7 7 0 -2 1 1 -3 -4 -1
-0 -0 0 0 1 0 1 1 1 1 1 0 0 0 0 0 -0 -0 -0 -1 1 2 2 -0 -1 -2 -1 -0 -2 -3 -3 2 3 4 5 3 3 1 1 1 3 6 5 6 6 5 2 0 1 -2 -1 -0 1 -0
-0 0 -0 0 0 -1 -0 1 1 1 1 1 0 1 0 0 -0 -0 -0 1 2 2 2 1 0 -1 -1 0 1 0 -3 -1 3 1 4 3 1 3 2 0 -3 3 3 5 4 4 5 4 5 4 1 1 0 0
-0 1 0 0 -1 -1 -0 0 1 1 1 0 1 0 0 0 -0 0 1 1 1 2 1 2 -0 -1 -2 1 1 -0 -1 0 -1 2 4 4 2 1 2 2 1 4 4 5 5 4 3 1 3 -1 2 2 0 2
-0 0 1 1 0 -0 -0 -0 -0 1 0 0 0 0 0 0 1 -0 1 1 0 0 1 2 1 -0 3 1 0 0 -0 2 1 4 4 5 2 2 2 2 3 -1 3 6 5 3 2 1 -1 -3 -1 1 -0 -0
-0 0 1 1 0 1 1 0 0 1 0 0 0 1 1 1 0 1 1 1 1 2 2 2 0 -1 -1 0 1 1 1 1 1 3 3 3 1 2 1 1 -2 -3 -4 -4 -4 -7 -2 2 3 2 1 1 1 2
-0 0 0 0 1 0 1 0 1 1 1 0 1 0 1 1 0 1 1 1 1 -1 1 2 1 1 0 -0 1 2 2 2 1 3 4 4 3 2 -0 2 -1 -3 -3 -1 -2 -2 -0 -2 3 2 2 2 2 2
-0 -0 -0 0 1 1 1 1 -0 0 1 1 1 1 0 1 0 0 1 -0 -1 -1 1 -0 1 2 0 1 2 1 2 1 1 4 3 4 4 3 2 1 -1 2 0 1 2 0 -1 -1 3 3 2 2 1 2
-1 -0 -0 1 0 0 0 0 0 1 1 0 -0 0 0 -0 1 1 1 -0 1 -0 0 0 1 1 1 1 1 1 1 0 2 3 3 4 3 4 3 3 2 2 3 3 4 3 3 2 2 2 2 2 1 1
-1 -0 -0 -1 -1 -0 -1 -0 -0 -0 -0 0 0 -1 -0 1 1 0 0 -1 -1 -3 -1 0 0 2 2 3 1 1 2 1 3 2 1 3 3 0 -0 0 1 1 2 2 3 3 3 3 2 2 2 2 1 1
-1 -1 -1 -1 -1 -0 -0 -1 -1 -0 -1 -3 -2 0 0 -0 -1 -2 -0 -1 -1 -1 -1 -2 -0 1 1 2 2 2 1 1 1 1 2 3 2 -0 -2 -2 -1 0 1 2 2 2 2 2 2 2 1 1 1 0
-2 -1 -1 -3 -2 -3 -3 -5 -5 -5 -4 -3 -3 -2 -1 -0 -0 -1 -0 -1 -1 -1 -1 -1 1 1 -1 1 1 1 2 1 3 1 1 2 -2 -2 -3 -3 -3 -2 -1 1 1 1 1 1 1 1 0 -0 -1 -1
-3 -3 -4 -4 -3 -2 -3 -3 -2 -2 -4 -2 -1 -1 -2 -1 0 -1 -1 -1 0 -1 0 1 1 -0 0 1 -1 1 2 4 2 3 0 -2 -3 -4 -4 -5 -5 -4 -3 -2 -2 -2 -1 -1 -1 -1 -2 -3 -3 -4
-5 -5 -3 -4 -4 -3 -5 -4 -2 -3 -2 -1 -1 -3 -2 -2 -2 -3 -3 -2 -2 -2 -2 -0 1 0 0 -0 0 3 2 1 3 1 -2 -3 -4 -5 -5 -5 -6 -6 -6 -6 -6 -6 -6 -5 -6 -6 -6 -5 -5 -6
-4 -4 -3 -4 -5 -6 -6 -6 -6 -4 -6 -5 -5 -3 -4 -3 -4 -5 -4 -3 -4 -4 -2 1 1 2 1 1 1 1 2 -1 -2 -3 -3 -4 -5 -5 -5 -6 -6 -7 -7 -7 -7 -7 -7 -7 -7 -7 -7 -7 -6 -7
-3 -4 -4 -4 -5 -5 -5 -5 -7 -6 -6 -8 -8 -6 -7 -7 -8 -6 -6 -5 -5 -4 -1 -1 1 2 1 -1 -2 -2 -2 -4 -5 -5 -5 -6 -6 -6 -7 -7 -7 -8 -8 -8 -9 -9 -9 -8 -9 -9 -8 -8 -8 -8
-1 -3 -4 -5 -5 -4 -3 -6 -8 -7 -7 -5 -6 -8 -7 -7 -7 -6 -6 -6 -4 -3 -1 -1 -3 -1 -1 -3 -4 -4 -5 -6 -7 -8 -8 -7 -7 -7 -8 -8 -8 -9 -9 -9 -9 -9 -9 -9 -8 -8 -10 -10 -10 -10
-3 -4 -3 -3 -3 -6 -7 -7 -8 -8 -7 -7 -7 -7 -8 -8 -8 -7 -7 -6 -4 -4 -5 -6 -8 -7 -6 -5 -6 -7 -7 -9 -9 -9 -9 -9 -9 -9 -9 -9 -9 -9 -9 -9 -10 -10 -10 -10 -10 -11 -11 -11 -11 -11
-3 -3 -2 -4 -5 -4 -5 -5 -7 -6 -6 -7 -7 -8 -8 -8 -9 -8 -8 -7 -9 -9 -10 -11 -10 -9 -9 -9 -9 -9 -8 -9 -10 -10 -10 -10 -10 -10 -10 -10 -10 -10 -10 -10 -10 -10 -10 -11 -11 -11 -11 -12 -12 -13
-2 -2 -3 -4 -2 -3 -3 -4 -6 -6 -5 -7 -7 -8 -9 -9 -9 -10 -11 -10 -12 -12 -11 -11 -11 -11 -11 -11 -11 -10 -9 -10 -11 -11 -12 -12 -11 -11 -11 -11 -11 -11 -11 -11 -11 -11 -11 -12 -12 -12 -12 -13 -13 -14
-3 -4 -4 -4 -5 -4 -2 -4 -5 -5 -6 -5 -7 -7 -7 -11 -12 -12 -12 -14 -13 -11 -11 -11 -12 -12 -12 -11 -11 -10 -10 -11 -12 -12 -12 -13 -13 -12 -12 -12 -12 -12 -13 -13 -13 -14 -14 -14 -15 -14 -15 -15 -15 -15
-7 -7 -8 -7 -6 -4 -4 -3 -4 -4 -5 -6 -7 -8 -8 -9 -10 -12 -13 -12 -12 -11 -11 -12 -12 -13 -13 -13 -12 -12 -12 -12 -12 -13 -13 -13 -13 -13 -14 -14 -13 -14 -14 -14 -14 -15 -16 -15 -15 -16 -17 -18 -18 -18
-9 -10 -8 -6 -6 -5 -5 -5 -5 -5 -6 -6 -8 -8 -8 -9 -11 -13 -12 -11 -11 -12 -12 -13 -13 -13 -13 -13 -13 -13 -13 -13 -13 -14 -14 -14 -14 -14 -15 -15 -15 -16 -16 -16 -18 -18 -19 -18 -18 -17 -17 -17 -18 -19
-13 -8 -6 -5 -5 -5 -6 -6 -6 -7 -8 -8 -8 -9 -9 -9 -12 -12 -11 -11 -11 -12 -11 -12 -13 -14 -14 -14 -14 -13 -13 -14 -14 -14 -14 -14 -15 -15 -16 -16 -16 -16 -17 -18 -18 -18 -19 -21 -23 -21 -21 -20 -20 -20
-12 -8 -6 -8 -6 -7 -8 -7 -8 -8 -9 -9 -10 -10 -9 -11 -11 -11 -11 -11 -13 -12 -13 -13 -13 -14 -14 -14 -15 -15 -14 -14 -14 -14 -15 -15 -15 -17 -21 -20 -17 -17 -17 -18 -19 -20 -20 -19 -21 -24 -24 -22 -21 -20
-9 -9 -8 -7 -7 -7 -7 -8 -9 -8 -9 -10 -8 -9 -10 -12 -13 -11 -11 -13 -13 -13 -12 -13 -14 -15 -15 -15 -15 -15 -15 -19 -20 -18 -16 -15 -16 -16 -17 -21 -23 -22 -19 -19 -19 -21 -23 -21 -21 -22 -24 -24 -23 -22
-8 -9 -8 -9 -8 -8 -8 -10 -10 -11 -11 -9 -8 -11 -12 -14 -13 -12 -13 -13 -14 -14 -14 -14 -15 -15 -16 -18 -22 -25 -26 -27 -28 -27 -26 -26 -24 -23 -23 -26 -26 -25 -24 -25 -24 -25 -26 -26 -24 -24 -25 -26 -26 -25
-10 -10 -10 -11 -11 -11 -12 -13 -13 -13 -13 -11 -11 -14 -14 -13 -13 -13 -14 -14 -15 -15 -15 -15 -15 -15 -16 -16 -16 -17 -17 -17 -19 -18 -18 -21 -25 -27 -27 -28 -27 -27 -29 -30 -30 -30 -31 -31 -30 -29 -28 -25 -23 -23
-9 -12 -13 -13 -13 -12 -11 -12 -12 -13 -13 -12 -13 -14 -14 -14 -14 -15 -15 -15 -16 -16 -16 -16 -17 -17 -19 -23 -26 -22 -17 -17 -18 -17 -17 -18 -19 -24 -26 -27 -26 -28 -29 -28 -30 -31 -30 -30 -29 -28 -28 -28 -27 -26
-9 -12 -13 -13 -14 -13 -13 -13 -12 -13 -16 -16 -16 -15 -15 -15 -15 -15 -15 -15 -15 -15 -15 -16 -15 -15 -16 -18 -22 -27 -26 -21 -20 -19 -17 -18 -21 -25 -26 -27 -27 -28 -28 -28 -30 -29 -29 -28 -26 -26 -27 -27 -28 -28
-10 -12 -13 -13 -13 -14 -14 -15 -15 -14 -15 -14 -15 -17 -16 -16 -16 -16 -16 -15 -16 -16 -16 -16 -16 -17 -19 -19 -18 -20 -23 -27 -28 -28 -28 -28 -27 -27 -27 -27 -27 -28 -29 -30 -30 -30 -30 -29 -28 -28 -27 -27 -28 -27
-10 -12 -13 -15 -13 -13 -13 -12 -12 -12 -12 -14 -15 -15 -15 -14 -15 -16 -16 -16 -16 -16 -16 -16 -17 -18 -22 -27 -29 -28 -28 -29 -28 -28 -28 -28 -28 -28 -28 -28 -27 -28 -28 -28 -29 -29 -29 -28 -28 -28 -27 -27 -27 -27
-11 -13 -13 -13 -12 -11 -12 -10 -13 -12 -12 -12 -13 -13 -14 -13 -15 -16 -16 -16 -16 -16 -17 -17 -17 -19 -27 -29 -28 -28 -28 -28 -28 -28 -28 -28 -28 -28 -28 -28 -27 -27 -27 -27 -27 -27 -27 -27 -27 -27 -27 -27 -27 -26

GFSWCAN_850_dewp_075.txt.gz
Dewpoint
-3 -2 -1 -1 -1 -0 0 0 1 0 -0 -0 0 -0 -0 -0 -1 -1 -1 -0 0 0 1 -1 -0 -1 -1 -2 -1 -2 -1 -1 0 0 2 1 0 2 0 2 3 4 5 3 5 6 7 2 2 3 2 1 2 2
-2 -1 0 1 -0 1 -0 -0 -1 -0 -0 0 1 0 0 -1 0 -1 -0 -0 -0 0 1 1 -1 -1 -3 -5 -4 -3 -2 -1 -0 0 1 0 1 -1 1 2 0 4 3 3 4 4 1 3 3 3 2 2 1 1
-1 -0 -0 0 1 -0 0 0 0 -0 -0 -0 -0 0 0 -1 0 -0 -0 -0 -0 0 -1 -0 1 -1 -2 -3 -3 -2 -2 -2 -1 -2 2 2 1 0 1 1 -2 -1 2 4 4 3 4 2 3 3 2 2 1 0
-0 -0 -0 1 0 1 0 1 1 1 0 0 1 0 0 -0 0 -0 -0 -1 0 -1 0 1 1 0 -2 -2 -3 -4 -5 -4 -2 0 1 1 1 1 0 -1 -0 -2 1 3 4 3 3 3 2 -1 -1 -0 0 -0
-0 0 0 1 1 0 0 1 0 1 1 0 0 0 -0 0 -0 -0 -0 -1 -3 -4 -1 1 2 1 1 1 -1 -2 -2 -1 -1 1 1 1 1 2 2 2 2 1 3 3 0 -1 2 -0 -2 -3 -3 2 1 2
1 0 1 0 0 0 0 0 0 1 0 1 0 0 0 -0 -0 0 -0 -0 -1 -0 1 2 2 3 2 1 1 0 -1 -1 -1 0 1 3 3 1 0 2 2 2 1 2 3 3 0 -2 -1 -0 0 -1 0 -3
1 0 0 0 -0 -0 -0 0 0 0 0 0 0 0 0 1 0 -0 -0 -1 -1 -1 -0 2 3 1 1 0 0 1 1 1 1 2 2 2 3 2 1 2 2 1 1 1 3 3 1 0 1 1 1 -1 1 1
0 0 0 1 1 -0 0 -0 0 1 0 0 0 1 0 0 -0 -1 -0 -0 -1 -0 -0 1 2 2 1 2 2 1 1 1 2 2 3 2 3 3 4 1 0 1 1 0 3 3 3 3 3 3 2 2 2 1
-0 -0 0 0 0 0 0 0 0 0 0 0 0 -0 -0 0 1 1 1 0 1 1 -2 -1 0 3 1 1 2 2 1 -1 1 1 1 1 2 2 -1 -1 -1 -2 -1 -1 2 2 2 2 2 2 2 1 1 0
-0 -1 -0 0 0 -0 0 -0 0 0 -0 0 -0 -0 -1 1 1 0 1 1 -1 -3 -3 -1 1 2 1 1 1 1 -0 -1 1 0 2 1 0 -2 -3 -3 -4 -3 -2 0 -1 1 1 1 1 1 1 0 -1 -2
-0 -1 -0 -0 0 0 0 0 0 0 -0 -0 -0 -0 -0 -0 -1 -2 -2 -2 -3 -2 -1 0 0 1 1 1 1 1 -1 -0 0 0 1 2 -2 -4 -5 -4 -5 -4 -3 -1 -3 -3 -2 -1 -1 -2 -2 -3 -3 -3
-1 -2 -1 -1 -1 -1 -1 -1 -0 -2 -4 -3 -2 -1 -1 -4 -5 -4 -4 -2 -0 1 -0 -0 -0 -0 1 0 0 1 1 1 0 -0 0 -2 -4 -5 -5 -6 -6 -6 -5 -4 -3 -2 -1 -1 -3 -3 -4 -5 -5 -6
-3 -4 -4 -2 -2 -2 -2 -2 -3 -3 -3 -4 -4 -5 -6 -6 -6 -4 -2 -1 -1 -2 -3 -1 0 -0 -1 -1 -0 1 2 2 -0 -2 -3 -5 -5 -6 -6 -7 -7 -7 -7 -6 -6 -5 -4 -5 -5 -5 -6 -7 -7 -7
-3 -4 -5 -6 -4 -3 -3 -4 -5 -5 -6 -6 -7 -8 -7 -8 -6 -5 -4 -4 -3 -4 -4 -2 -1 -1 -1 -1 0 2 -0 -2 -3 -4 -5 -5 -6 -7 -7 -8 -8 -9 -9 -8 -8 -8 -8 -7 -8 -8 -8 -8 -7 -8
-4 -5 -5 -7 -6 -5 -7 -7 -8 -8 -9 -8 -9 -7 -7 -7 -8 -7 -6 -5 -5 -5 -3 -1 0 -0 -1 -2 -4 -4 -6 -6 -5 -6 -6 -7 -7 -8 -8 -9 -9 -9 -9 -10 -10 -10 -10 -10 -10 -10 -9 -9 -8 -8
-5 -5 -6 -8 -6 -7 -7 -10 -9 -10 -10 -10 -9 -9 -9 -10 -9 -8 -7 -7 -6 -5 -2 -2 -1 -3 -5 -6 -7 -6 -6 -6 -7 -8 -8 -8 -9 -9 -9 -9 -10 -10 -10 -10 -10 -11 -10 -10 -10 -10 -10 -10 -10 -9
-5 -3 -3 -4 -10 -10 -8 -11 -12 -10 -9 -9 -9 -9 -9 -9 -10 -9 -8 -8 -5 -4 -5 -4 -6 -6 -5 -6 -7 -8 -9 -9 -9 -10 -10 -10 -10 -9 -10 -10 -10 -10 -11 -11 -11 -11 -11 -10 -10 -10 -11 -11 -11 -11
-3 -3 -3 -6 -6 -9 -12 -11 -11 -10 -8 -9 -10 -9 -10 -10 -10 -10 -9 -9 -6 -7 -9 -8 -11 -10 -9 -9 -10 -9 -10 -11 -11 -11 -11 -10 -10 -10 -10 -10 -10 -10 -11 -11 -11 -11 -11 -11 -11 -12 -12 -12 -12 -12
-2 -2 -4 -5 -7 -8 -8 -9 -12 -8 -9 -9 -10 -11 -10 -11 -11 -10 -11 -12 -15 -15 -15 -13 -12 -11 -12 -11 -11 -10 -11 -11 -12 -12 -11 -11 -10 -10 -10 -10 -10 -10 -10 -11 -10 -11 -11 -11 -12 -12 -12 -11 -12 -13
-3 -3 -4 -6 -6 -7 -6 -6 -8 -8 -8 -10 -10 -11 -11 -11 -12 -13 -14 -14 -15 -14 -13 -13 -13 -13 -12 -12 -11 -11 -11 -11 -12 -12 -12 -12 -11 -11 -11 -11 -11 -11 -11 -11 -11 -12 -12 -12 -12 -12 -13 -14 -15 -16
-5 -6 -6 -6 -5 -4 -4 -5 -7 -8 -8 -7 -10 -10 -13 -14 -14 -14 -14 -15 -14 -12 -13 -13 -13 -13 -12 -11 -11 -11 -11 -11 -11 -12 -13 -13 -12 -12 -12 -12 -11 -11 -11 -12 -12 -13 -12 -13 -14 -14 -15 -16 -17 -18
-7 -8 -8 -7 -6 -5 -5 -5 -5 -6 -8 -8 -7 -10 -10 -12 -13 -14 -15 -14 -13 -13 -13 -13 -13 -13 -12 -12 -12 -12 -12 -12 -12 -13 -13 -13 -13 -13 -13 -13 -12 -13 -13 -13 -14 -16 -17 -17 -18 -19 -21 -21 -21 -22
-9 -8 -7 -7 -7 -7 -6 -6 -6 -6 -9 -8 -10 -9 -11 -11 -14 -15 -12 -12 -14 -13 -13 -14 -14 -13 -13 -13 -13 -13 -13 -13 -13 -13 -13 -13 -13 -14 -14 -14 -14 -15 -17 -19 -19 -19 -20 -19 -20 -23 -23 -24 -25 -26
-9 -7 -6 -6 -7 -8 -8 -8 -8 -9 -9 -10 -10 -10 -10 -12 -15 -14 -13 -13 -13 -13 -14 -14 -14 -14 -14 -14 -14 -14 -14 -14 -14 -14 -14 -14 -14 -14 -16 -19 -20 -20 -21 -21 -22 -22 -20 -21 -21 -22 -23 -24 -24 -25
-10 -8 -8 -11 -8 -10 -12 -13 -12 -11 -12 -12 -12 -10 -10 -13 -14 -14 -15 -13 -13 -13 -14 -14 -14 -14 -14 -14 -14 -14 -14 -14 -14 -14 -15 -19 -21 -20 -20 -20 -21 -22 -20 -22 -24 -25 -24 -22 -22 -23 -23 -23 -24 -25
-10 -8 -9 -10 -10 -10 -10 -11 -13 -12 -13 -13 -12 -11 -14 -18 -18 -15 -14 -14 -14 -14 -14 -14 -14 -14 -14 -14 -14 -14 -14 -15 -15 -16 -16 -17 -17 -19 -21 -21 -21 -21 -22 -21 -23 -24 -24 -24 -25 -25 -27 -26 -26 -28
-12 -13 -11 -11 -9 -10 -13 -12 -13 -15 -16 -15 -16 -18 -19 -19 -19 -14 -14 -14 -14 -14 -14 -14 -14 -14 -14 -15 -19 -25 -26 -24 -23 -22 -19 -18 -19 -21 -24 -25 -24 -24 -25 -24 -24 -26 -27 -28 -28 -29 -29 -28 -27 -27
-12 -13 -14 -14 -13 -13 -18 -18 -19 -18 -17 -12 -16 -19 -20 -20 -16 -14 -14 -14 -14 -14 -14 -15 -15 -16 -18 -21 -21 -21 -21 -21 -21 -21 -23 -26 -28 -28 -28 -28 -29 -31 -30 -29 -29 -29 -30 -30 -30 -29 -28 -28 -28 -28
-13 -14 -16 -18 -15 -14 -14 -17 -16 -14 -14 -13 -20 -20 -15 -15 -15 -15 -15 -15 -15 -15 -15 -15 -16 -16 -18 -21 -21 -21 -19 -18 -19 -19 -19 -19 -21 -26 -27 -27 -26 -27 -29 -31 -31 -31 -31 -30 -29 -28 -28 -29 -29 -29
-12 -15 -15 -16 -18 -16 -14 -15 -15 -16 -15 -16 -16 -16 -16 -15 -16 -16 -16 -16 -16 -16 -16 -16 -16 -16 -16 -18 -22 -24 -23 -21 -20 -20 -19 -18 -20 -26 -27 -28 -27 -28 -28 -27 -28 -28 -28 -28 -27 -27 -27 -27 -27 -27
-14 -15 -15 -14 -15 -14 -15 -16 -16 -17 -17 -17 -17 -17 -16 -16 -16 -15 -15 -15 -15 -16 -16 -16 -16 -16 -17 -21 -22 -23 -23 -26 -28 -28 -28 -28 -28 -28 -28 -27 -27 -27 -28 -29 -29 -29 -29 -30 -29 -29 -28 -28 -27 -27
-15 -15 -15 -17 -14 -14 -13 -13 -15 -15 -16 -16 -16 -17 -16 -17 -17 -16 -16 -16 -16 -16 -17 -17 -17 -17 -18 -23 -28 -28 -28 -28 -28 -28 -28 -29 -29 -28 -28 -28 -27 -26 -26 -27 -27 -28 -27 -27 -27 -27 -26 -26 -26 -27
-14 -14 -14 -14 -13 -14 -13 -12 -12 -13 -13 -14 -14 -14 -15 -15 -16 -16 -17 -16 -16 -16 -16 -16 -17 -17 -24 -28 -28 -28 -28 -28 -28 -27 -27 -27 -27 -28 -28 -28 -28 -27 -27 -27 -27 -27 -27 -27 -27 -27 -27 -27 -27 -27